Terug naar catalogus

ONEWEB-0444

ActiefCommunicatiePO
NORAD 51638·PAYLOAD·🇬🇧 United Kingdom

Gelanceerd Feb 10, 2022 vanaf Guiana Space Centre

Loading…

Volgende Passages (komende 24 uur)

TLE

VersSource: CelesTrak SupGP

Epoch: Sep 14, 2026, 23:27 UTC

1 51638C 22012S   26257.97724955 -.00002438  00000+0 -69923-2 0  2576
2 51638  87.8899  18.3905 0001913 101.0205 296.8630 13.10369393    16

Volg ONEWEB-0444 in realtime met AllMySat

Download on the App Store